Location: Caseificio
(44.7500°N, 11.0500°E)
Time: 00:01:33
(UTC+00:00)

Meteor 1-29 - Pass Details

Date: 26 May 2022
Orbit: 423 x 442 km, 97.7° (Epoch: 26 June)

Event Time Altitude Azimuth Distance (km) Brightness Sun altitude
Rises 02:58:16 0° 15° (NNE) 2,394 7.6 -6.5°
Reaches altitude 10° 03:00:17 10° 19° (NNE) 1,523 6.6 -6.2°
Maximum altitude 03:03:31 65° 102° (ESE) 472 3.2 -5.8°
Drops below altitude 10° 03:06:44 10° 185° (S) 1,513 5.2 -5.3°
Sets 03:08:44 0° 188° (S) 2,375 6.1 -5.0°
